Time,TemperatureF,DewpointF,PressureIn,WindDirection,WindDirectionDegrees,WindSpeedMPH,WindSpeedGustMPH,Humidity,HourlyPrecipIn,Conditions,Clouds,dailyrainin,SoftwareType,DateUTC
2013-03-10 00:00:00,35.2,30.3,0.00,SSE,164,0.0,0.0,82,0.00,,,0.00,VWS V13.01,2013-03-10 06:00:00,
2013-03-10 00:05:00,35.2,30.3,0.00,SSE,164,0.0,0.0,82,0.00,,,0.00,VWS V13.01,2013-03-10 06:05:00,
2013-03-10 00:10:00,35.1,29.8,0.00,SSE,164,0.0,0.0,81,0.00,,,0.00,VWS V13.01,2013-03-10 06:10:00,
2013-03-10 00:15:00,35.1,29.8,0.00,SSE,164,0.0,0.0,81,0.00,,,0.00,VWS V13.01,2013-03-10 06:15:00,
2013-03-10 00:20:00,35.1,29.8,0.00,SSE,164,0.0,0.0,81,0.00,,,0.00,VWS V13.01,2013-03-10 06:20:00,
2013-03-10 00:25:00,35.1,29.8,0.00,SSE,164,0.0,0.0,81,0.00,,,0.00,VWS V13.01,2013-03-10 06:25:00,
2013-03-10 00:30:00,35.1,29.8,0.00,SSE,164,0.0,0.0,81,0.00,,,0.00,VWS V13.01,2013-03-10 06:30:00,
2013-03-10 00:35:00,35.1,29.8,0.00,SSE,164,0.0,0.0,81,0.00,,,0.00,VWS V13.01,2013-03-10 06:35:00,
2013-03-10 00:40:00,34.9,29.6,0.00,SSE,164,0.0,0.0,81,0.00,,,0.00,VWS V13.01,2013-03-10 06:40:00,
2013-03-10 00:45:00,34.7,29.5,0.00,SSE,164,0.0,0.0,81,0.00,,,0.00,VWS V13.01,2013-03-10 06:45:00,
2013-03-10 00:50:00,34.7,29.5,0.00,SSE,164,0.0,0.0,81,0.00,,,0.00,VWS V13.01,2013-03-10 06:50:00,
2013-03-10 00:55:00,34.5,29.3,0.00,SSE,164,0.0,0.0,81,0.00,,,0.00,VWS V13.01,2013-03-10 06:55:00,
2013-03-10 01:00:00,34.5,29.3,0.00,SSE,164,0.0,0.0,81,0.00,,,0.00,VWS V13.01,2013-03-10 07:00:00,
2013-03-10 01:05:00,34.3,29.1,0.00,SSE,164,0.0,0.0,81,0.00,,,0.00,VWS V13.01,2013-03-10 07:05:00,
2013-03-10 01:10:00,34.3,29.1,0.00,SSE,164,0.0,0.0,81,0.00,,,0.00,VWS V13.01,2013-03-10 07:10:00,
2013-03-10 01:15:00,34.5,29.3,0.00,SSE,164,0.0,0.0,81,0.00,,,0.00,VWS V13.01,2013-03-10 07:15:00,
2013-03-10 01:20:00,34.7,29.5,0.00,SSE,164,0.0,0.0,81,0.00,,,0.00,VWS V13.01,2013-03-10 07:20:00,
2013-03-10 01:25:00,34.7,29.5,0.00,SSE,164,0.0,0.0,81,0.00,,,0.00,VWS V13.01,2013-03-10 07:25:00,
2013-03-10 01:30:00,34.5,29.3,0.00,SSE,164,0.0,0.0,81,0.00,,,0.00,VWS V13.01,2013-03-10 07:30:00,
2013-03-10 01:35:00,34.5,29.3,0.00,SSE,164,0.0,0.0,81,0.00,,,0.00,VWS V13.01,2013-03-10 07:35:00,
2013-03-10 01:40:00,34.2,28.6,0.00,SSE,164,0.0,0.0,80,0.00,,,0.00,VWS V13.01,2013-03-10 07:40:00,
2013-03-10 01:45:00,34.2,28.6,0.00,SSE,164,0.0,0.0,80,0.00,,,0.00,VWS V13.01,2013-03-10 07:45:00,
2013-03-10 01:50:00,34.2,29.0,0.00,SSE,164,0.0,0.0,81,0.00,,,0.00,VWS V13.01,2013-03-10 07:50:00,
2013-03-10 01:55:00,34.2,29.0,0.00,SSE,164,0.0,0.0,81,0.00,,,0.00,VWS V13.01,2013-03-10 07:55:00,
2013-03-10 03:00:00,34.2,29.0,0.00,SSE,164,0.0,0.0,81,0.00,,,0.00,VWS V13.01,2013-03-10 08:00:00,
2013-03-10 03:05:00,34.3,29.1,0.00,SSE,164,0.0,0.0,81,0.00,,,0.00,VWS V13.01,2013-03-10 08:05:00,
2013-03-10 03:10:00,34.3,29.1,0.00,SSE,164,0.0,0.0,81,0.00,,,0.00,VWS V13.01,2013-03-10 08:10:00,
2013-03-10 03:15:00,34.3,29.1,0.00,SSE,164,0.0,0.0,81,0.00,,,0.00,VWS V13.01,2013-03-10 08:15:00,
2013-03-10 03:20:00,34.3,29.1,0.00,SSE,164,0.0,0.0,81,0.00,,,0.00,VWS V13.01,2013-03-10 08:20:00,
2013-03-10 03:25:00,34.3,29.1,0.00,SSE,164,0.0,0.0,81,0.00,,,0.00,VWS V13.01,2013-03-10 08:25:00,
2013-03-10 03:30:00,34.3,29.1,0.00,SSE,164,0.0,0.0,81,0.00,,,0.00,VWS V13.01,2013-03-10 08:30:00,
2013-03-10 03:35:00,34.5,29.3,0.00,SSE,164,0.0,0.0,81,0.00,,,0.00,VWS V13.01,2013-03-10 08:35:00,
2013-03-10 03:40:00,34.5,29.3,0.00,SSE,164,0.0,0.0,81,0.00,,,0.00,VWS V13.01,2013-03-10 08:40:00,
2013-03-10 03:45:00,34.3,29.1,0.00,SSE,164,0.0,0.0,81,0.00,,,0.00,VWS V13.01,2013-03-10 08:45:00,
2013-03-10 03:50:00,34.0,28.5,0.00,SSE,164,0.0,0.0,80,0.00,,,0.00,VWS V13.01,2013-03-10 08:50:00,
2013-03-10 03:55:00,33.8,28.3,0.00,SSE,164,0.0,0.0,80,0.00,,,0.00,VWS V13.01,2013-03-10 08:55:00,
2013-03-10 04:00:00,33.8,28.3,0.00,SSE,164,0.0,0.0,80,0.00,,,0.00,VWS V13.01,2013-03-10 09:00:00,
2013-03-10 04:05:00,33.8,28.3,0.00,SSE,164,0.0,0.0,80,0.00,,,0.00,VWS V13.01,2013-03-10 09:05:00,
2013-03-10 04:10:00,34.0,28.8,0.00,SSE,164,0.0,0.0,81,0.00,,,0.00,VWS V13.01,2013-03-10 09:10:00,
2013-03-10 04:15:00,34.0,28.8,0.00,SSE,164,0.0,0.0,81,0.00,,,0.00,VWS V13.01,2013-03-10 09:15:00,
2013-03-10 04:20:00,34.0,28.8,0.00,SSE,164,0.0,0.0,81,0.00,,,0.00,VWS V13.01,2013-03-10 09:20:00,
2013-03-10 04:25:00,34.0,28.8,0.00,SSE,164,0.0,0.0,81,0.00,,,0.00,VWS V13.01,2013-03-10 09:25:00,
2013-03-10 04:30:00,33.8,28.3,0.00,SSE,164,0.0,0.0,80,0.00,,,0.00,VWS V13.01,2013-03-10 09:30:00,
2013-03-10 04:35:00,33.8,28.3,0.00,SSE,164,0.0,0.0,80,0.00,,,0.00,VWS V13.01,2013-03-10 09:35:00,
2013-03-10 04:40:00,34.2,29.0,0.00,North,0,0.0,0.0,81,0.00,,,0.00,VWS V13.01,2013-03-10 09:40:00,
2013-03-10 04:45:00,34.2,29.0,0.00,NNW,343,0.0,3.1,81,0.00,,,0.00,VWS V13.01,2013-03-10 09:45:00,
2013-03-10 04:50:00,34.3,29.1,0.00,North,0,3.1,3.1,81,0.00,,,0.00,VWS V13.01,2013-03-10 09:50:00,
2013-03-10 04:55:00,34.5,29.3,0.00,North,2,2.2,2.2,81,0.00,,,0.00,VWS V13.01,2013-03-10 09:55:00,
2013-03-10 05:00:00,34.5,29.3,0.00,WNW,290,0.0,3.1,81,0.00,,,0.00,VWS V13.01,2013-03-10 10:00:00,
2013-03-10 05:05:00,34.5,29.3,0.00,NNW,329,0.0,0.0,81,0.00,,,0.00,VWS V13.01,2013-03-10 10:05:00,
2013-03-10 05:10:00,34.5,29.3,0.00,NNW,346,0.0,4.0,81,0.00,,,0.00,VWS V13.01,2013-03-10 10:10:00,
2013-03-10 05:15:00,34.7,29.5,0.00,North,0,2.2,3.6,81,0.00,,,0.00,VWS V13.01,2013-03-10 10:15:00,
2013-03-10 05:20:00,34.7,29.5,0.00,NNW,348,0.0,0.0,81,0.00,,,0.00,VWS V13.01,2013-03-10 10:20:00,
2013-03-10 05:25:00,34.7,29.8,0.00,NW,314,7.6,7.6,82,0.00,,,0.00,VWS V13.01,2013-03-10 10:25:00,
2013-03-10 05:30:00,34.7,29.8,0.00,NNW,331,2.7,3.1,82,0.00,,,0.00,VWS V13.01,2013-03-10 10:30:00,
2013-03-10 05:35:00,34.7,29.8,0.00,North,357,5.8,5.8,82,0.00,,,0.00,VWS V13.01,2013-03-10 10:35:00,
2013-03-10 05:40:00,34.7,29.8,0.00,North,353,3.1,5.4,82,0.00,,,0.00,VWS V13.01,2013-03-10 10:40:00,
2013-03-10 05:45:00,34.7,29.8,0.00,NW,324,3.6,4.9,82,0.00,,,0.00,VWS V13.01,2013-03-10 10:45:00,
2013-03-10 05:50:00,34.5,29.9,0.00,NW,314,3.6,3.6,83,0.00,,,0.00,VWS V13.01,2013-03-10 10:50:00,
2013-03-10 05:55:00,34.5,29.9,0.00,ENE,61,2.2,5.4,83,0.00,,,0.00,VWS V13.01,2013-03-10 10:55:00,
2013-03-10 06:00:00,34.5,29.9,0.00,NNW,346,4.0,6.3,83,0.00,,,0.00,VWS V13.01,2013-03-10 11:00:00,
2013-03-10 06:05:00,34.5,29.9,0.00,North,353,4.0,4.0,83,0.00,,,0.00,VWS V13.01,2013-03-10 11:05:00,
2013-03-10 06:10:00,34.5,29.9,0.00,NW,306,0.0,5.8,83,0.00,,,0.00,VWS V13.01,2013-03-10 11:10:00,
2013-03-10 06:15:00,34.3,29.7,0.00,NNW,341,7.6,8.3,83,0.00,,,0.00,VWS V13.01,2013-03-10 11:15:00,
2013-03-10 06:20:00,34.3,29.7,0.00,North,353,5.4,5.4,83,0.00,,,0.00,VWS V13.01,2013-03-10 11:20:00,
2013-03-10 06:25:00,34.3,30.0,0.00,NW,326,3.6,4.9,84,0.00,,,0.00,VWS V13.01,2013-03-10 11:25:00,
2013-03-10 06:30:00,34.3,29.7,0.00,North,349,4.5,4.9,83,0.00,,,0.00,VWS V13.01,2013-03-10 11:30:00,
2013-03-10 06:35:00,34.3,29.7,0.00,North,0,5.4,5.4,83,0.00,,,0.00,VWS V13.01,2013-03-10 11:35:00,
2013-03-10 06:40:00,34.2,29.5,0.00,NW,324,0.0,0.0,83,0.00,,,0.00,VWS V13.01,2013-03-10 11:40:00,
2013-03-10 06:45:00,34.2,29.5,0.00,North,357,3.6,4.9,83,0.00,,,0.00,VWS V13.01,2013-03-10 11:45:00,
2013-03-10 06:50:00,34.2,29.5,0.00,North,357,4.9,4.9,83,0.00,,,0.00,VWS V13.01,2013-03-10 11:50:00,
2013-03-10 06:55:00,34.2,29.5,0.00,North,353,3.6,3.6,83,0.00,,,0.00,VWS V13.01,2013-03-10 11:55:00,
2013-03-10 07:00:00,34.2,29.2,0.00,North,350,3.1,3.1,82,0.00,,,0.00,VWS V13.01,2013-03-10 12:00:00,
2013-03-10 07:05:00,34.2,29.2,0.00,NNW,337,3.6,4.5,82,0.00,,,0.00,VWS V13.01,2013-03-10 12:05:00,
2013-03-10 07:10:00,34.2,29.2,0.00,NNW,330,0.0,0.0,82,0.00,,,0.00,VWS V13.01,2013-03-10 12:10:00,
2013-03-10 07:15:00,34.0,29.1,0.00,NW,317,0.0,0.0,82,0.00,,,0.00,VWS V13.01,2013-03-10 12:15:00,
2013-03-10 07:20:00,34.0,28.8,0.00,NNW,337,5.4,5.4,81,0.00,,,0.00,VWS V13.01,2013-03-10 12:20:00,
2013-03-10 07:25:00,34.0,28.8,0.00,NNE,28,2.7,5.8,81,0.00,,,0.00,VWS V13.01,2013-03-10 12:25:00,
2013-03-10 07:30:00,34.0,28.8,0.00,NW,311,0.0,0.0,81,0.00,,,0.00,VWS V13.01,2013-03-10 12:30:00,
2013-03-10 07:35:00,34.0,28.5,0.00,NNW,338,6.3,6.3,80,0.00,,,0.00,VWS V13.01,2013-03-10 12:35:00,
2013-03-10 07:40:00,33.8,28.0,0.00,NNW,341,2.7,7.6,79,0.00,,,0.00,VWS V13.01,2013-03-10 12:40:00,
2013-03-10 07:45:00,34.0,28.2,0.00,NW,326,3.1,3.6,79,0.00,,,0.00,VWS V13.01,2013-03-10 12:45:00,
2013-03-10 07:50:00,34.0,27.9,0.00,NNW,341,3.1,4.5,78,0.00,,,0.00,VWS V13.01,2013-03-10 12:50:00,
2013-03-10 07:55:00,34.0,27.9,0.00,North,353,0.0,2.2,78,0.00,,,0.00,VWS V13.01,2013-03-10 12:55:00,
2013-03-10 08:00:00,34.0,27.9,0.00,NNW,345,3.6,5.8,78,0.00,,,0.00,VWS V13.01,2013-03-10 13:00:00,
2013-03-10 08:05:00,34.0,27.5,0.00,NNW,341,4.0,4.0,77,0.00,,,0.00,VWS V13.01,2013-03-10 13:05:00,
2013-03-10 08:10:00,33.8,27.0,0.00,NNW,337,0.0,4.0,76,0.00,,,0.00,VWS V13.01,2013-03-10 13:10:00,
2013-03-10 08:15:00,34.0,27.2,0.00,North,10,0.0,3.1,76,0.00,,,0.00,VWS V13.01,2013-03-10 13:15:00,
2013-03-10 08:20:00,34.0,26.9,0.00,North,0,0.0,3.1,75,0.00,,,0.00,VWS V13.01,2013-03-10 13:20:00,
2013-03-10 08:25:00,33.8,26.7,0.00,NW,314,2.2,2.7,75,0.00,,,0.00,VWS V13.01,2013-03-10 13:25:00,
2013-03-10 08:30:00,34.0,26.6,0.00,North,2,5.8,5.8,74,0.00,,,0.00,VWS V13.01,2013-03-10 13:30:00,
2013-03-10 08:35:00,34.0,26.2,0.00,NNE,27,4.0,5.4,73,0.00,,,0.00,VWS V13.01,2013-03-10 13:35:00,
2013-03-10 08:40:00,34.0,25.9,0.00,NNW,346,6.3,7.6,72,0.00,,,0.00,VWS V13.01,2013-03-10 13:40:00,
2013-03-10 08:45:00,34.2,25.4,0.00,NNE,25,3.1,3.1,70,0.00,,,0.00,VWS V13.01,2013-03-10 13:45:00,
2013-03-10 08:50:00,34.2,25.4,0.00,NNE,32,0.0,0.0,70,0.00,,,0.00,VWS V13.01,2013-03-10 13:50:00,
2013-03-10 08:56:00,34.2,24.7,0.00,NNW,345,0.0,2.7,68,0.00,,,0.00,VWS V13.01,2013-03-10 13:56:00,
2013-03-10 09:00:00,34.2,24.7,0.00,NNW,330,5.8,5.8,68,0.00,,,0.00,VWS V13.01,2013-03-10 14:00:00,
2013-03-10 09:05:00,34.2,24.4,0.00,North,357,0.0,0.0,67,0.00,,,0.00,VWS V13.01,2013-03-10 14:05:00,
2013-03-10 09:10:00,34.2,23.6,0.00,North,353,4.0,6.3,65,0.00,,,0.00,VWS V13.01,2013-03-10 14:10:00,
2013-03-10 09:15:00,34.2,22.9,0.00,North,353,0.0,0.0,63,0.00,,,0.00,VWS V13.01,2013-03-10 14:15:00,
2013-03-10 09:20:00,34.2,22.9,0.00,NNE,30,0.0,3.1,63,0.00,,,0.00,VWS V13.01,2013-03-10 14:20:00,
2013-03-10 09:25:00,34.2,22.5,0.00,NNW,334,0.0,5.4,62,0.00,,,0.00,VWS V13.01,2013-03-10 14:25:00,
2013-03-10 09:30:00,34.2,21.7,0.00,NNE,17,4.0,7.6,60,0.00,,,0.00,VWS V13.01,2013-03-10 14:30:00,
2013-03-10 09:35:00,34.2,21.3,0.00,NE,56,0.0,3.1,59,0.00,,,0.00,VWS V13.01,2013-03-10 14:35:00,
2013-03-10 09:40:00,34.2,20.9,0.00,NE,41,0.0,4.0,58,0.00,,,0.00,VWS V13.01,2013-03-10 14:40:00,
2013-03-10 09:45:00,34.2,20.9,0.00,NNW,345,4.0,4.0,58,0.00,,,0.00,VWS V13.01,2013-03-10 14:45:00,
2013-03-10 09:50:00,34.2,20.5,0.00,NNE,14,4.0,4.0,57,0.00,,,0.00,VWS V13.01,2013-03-10 14:50:00,
2013-03-10 09:55:00,34.0,19.5,0.00,NE,41,2.7,9.6,55,0.00,,,0.00,VWS V13.01,2013-03-10 14:55:00,
2013-03-10 10:00:00,34.2,19.7,0.00,NW,324,4.9,6.3,55,0.00,,,0.00,VWS V13.01,2013-03-10 15:00:00,
2013-03-10 10:05:00,34.2,19.3,0.00,NW,318,3.6,4.9,54,0.00,,,0.00,VWS V13.01,2013-03-10 15:05:00,
2013-03-10 10:10:00,34.2,19.3,0.00,NNE,23,0.0,6.7,54,0.00,,,0.00,VWS V13.01,2013-03-10 15:10:00,
2013-03-10 10:15:00,34.3,19.4,0.00,North,5,0.0,4.0,54,0.00,,,0.00,VWS V13.01,2013-03-10 15:15:00,
2013-03-10 10:20:00,34.2,19.3,0.00,North,357,0.0,0.0,54,0.00,,,0.00,VWS V13.01,2013-03-10 15:20:00,
2013-03-10 10:25:00,34.2,19.7,0.00,NNE,25,0.0,2.2,55,0.00,,,0.00,VWS V13.01,2013-03-10 15:25:00,
2013-03-10 10:30:00,34.2,19.3,0.00,North,353,4.0,4.5,54,0.00,,,0.00,VWS V13.01,2013-03-10 15:30:00,
2013-03-10 10:35:00,34.2,19.3,0.00,North,7,0.0,4.0,54,0.00,,,0.00,VWS V13.01,2013-03-10 15:35:00,
2013-03-10 10:40:00,34.2,19.3,0.00,North,0,8.7,8.7,54,0.00,,,0.00,VWS V13.01,2013-03-10 15:40:00,
2013-03-10 10:45:00,34.2,19.3,0.00,NNE,21,5.4,5.4,54,0.00,,,0.00,VWS V13.01,2013-03-10 15:45:00,
2013-03-10 10:50:00,34.3,19.4,0.00,North,357,3.1,3.6,54,0.00,,,0.00,VWS V13.01,2013-03-10 15:50:00,
2013-03-10 10:55:00,34.3,19.4,0.00,NNW,332,0.0,0.0,54,0.00,,,0.00,VWS V13.01,2013-03-10 15:55:00,
2013-03-10 11:00:00,34.3,19.0,0.00,North,3,4.0,5.8,53,0.00,,,0.00,VWS V13.01,2013-03-10 16:00:00,
2013-03-10 11:05:00,34.3,18.5,0.00,NW,324,5.4,5.4,52,0.00,,,0.00,VWS V13.01,2013-03-10 16:05:00,
2013-03-10 11:10:00,34.3,18.5,0.00,North,357,2.7,2.7,52,0.00,,,0.00,VWS V13.01,2013-03-10 16:10:00,
2013-03-10 11:15:00,34.3,18.5,0.00,NE,53,0.0,5.8,52,0.00,,,0.00,VWS V13.01,2013-03-10 16:15:00,
2013-03-10 11:20:00,34.5,18.7,0.00,NW,319,0.0,0.0,52,0.00,,,0.00,VWS V13.01,2013-03-10 16:20:00,
2013-03-10 11:25:00,34.3,18.1,0.00,WNW,297,7.6,7.6,51,0.00,,,0.00,VWS V13.01,2013-03-10 16:25:00,
2013-03-10 11:30:00,34.3,18.1,0.00,NNW,337,6.3,8.1,51,0.00,,,0.00,VWS V13.01,2013-03-10 16:30:00,
2013-03-10 11:35:00,34.3,17.6,0.00,North,0,6.3,6.3,50,0.00,,,0.00,VWS V13.01,2013-03-10 16:35:00,
2013-03-10 11:40:00,34.5,17.8,0.00,North,353,7.2,10.1,50,0.00,,,0.00,VWS V13.01,2013-03-10 16:40:00,
2013-03-10 11:45:00,34.5,17.8,0.00,NNE,23,3.6,8.3,50,0.00,,,0.00,VWS V13.01,2013-03-10 16:45:00,
2013-03-10 11:51:00,34.5,17.8,0.00,NW,304,4.9,4.9,50,0.00,,,0.00,VWS V13.01,2013-03-10 16:51:00,
2013-03-10 11:56:00,34.5,17.8,0.00,ENE,64,4.0,6.3,50,0.00,,,0.00,VWS V13.01,2013-03-10 16:56:00,
2013-03-10 12:01:00,34.5,17.8,0.00,NNE,28,8.1,8.1,50,0.00,,,0.00,VWS V13.01,2013-03-10 17:01:00,
2013-03-10 12:06:00,34.5,17.8,0.00,SW,220,3.1,4.9,50,0.00,,,0.00,VWS V13.01,2013-03-10 17:06:00,
2013-03-10 12:11:00,34.5,17.8,0.00,North,8,4.0,7.6,50,0.00,,,0.00,VWS V13.01,2013-03-10 17:11:00,
2013-03-10 12:16:00,34.5,17.8,0.00,NE,43,5.4,8.7,50,0.00,,,0.00,VWS V13.01,2013-03-10 17:16:00,
2013-03-10 12:21:00,34.5,17.3,0.00,North,357,3.6,9.2,49,0.00,,,0.00,VWS V13.01,2013-03-10 17:21:00,
2013-03-10 12:26:00,34.5,17.3,0.00,NNW,348,5.8,6.3,49,0.00,,,0.00,VWS V13.01,2013-03-10 17:26:00,
2013-03-10 12:31:00,34.5,17.8,0.00,NW,316,2.2,10.1,50,0.00,,,0.00,VWS V13.01,2013-03-10 17:31:00,
2013-03-10 12:36:00,34.9,18.1,0.00,NNW,333,4.0,5.8,50,0.00,,,0.00,VWS V13.01,2013-03-10 17:36:00,
2013-03-10 12:41:00,35.2,18.0,0.00,NE,45,4.0,4.0,49,0.00,,,0.00,VWS V13.01,2013-03-10 17:41:00,
2013-03-10 12:46:00,35.4,17.2,0.00,East,84,4.0,5.4,47,0.00,,,0.00,VWS V13.01,2013-03-10 17:46:00,
2013-03-10 12:51:00,35.6,17.4,0.00,ENE,74,3.1,5.4,47,0.00,,,0.00,VWS V13.01,2013-03-10 17:51:00,
2013-03-10 12:56:00,35.6,16.4,0.00,NNE,27,5.4,8.1,45,0.00,,,0.00,VWS V13.01,2013-03-10 17:56:00,
2013-03-10 13:01:00,35.6,15.9,0.00,ENE,60,6.3,8.1,44,0.00,,,0.00,VWS V13.01,2013-03-10 18:01:00,
2013-03-10 13:06:00,35.4,16.2,0.00,NNW,332,5.4,5.8,45,0.00,,,0.00,VWS V13.01,2013-03-10 18:06:00,
2013-03-10 13:11:00,35.4,16.2,0.00,NNW,327,4.5,5.8,45,0.00,,,0.00,VWS V13.01,2013-03-10 18:11:00,
2013-03-10 13:16:00,35.2,16.0,0.00,NNE,27,5.8,8.7,45,0.00,,,0.00,VWS V13.01,2013-03-10 18:16:00,
2013-03-10 13:21:00,35.2,16.0,0.00,NNE,32,6.3,6.3,45,0.00,,,0.00,VWS V13.01,2013-03-10 18:21:00,
2013-03-10 13:26:00,35.2,16.0,0.00,NNW,344,3.1,4.0,45,0.00,,,0.00,VWS V13.01,2013-03-10 18:26:00,
2013-03-10 13:31:00,35.2,15.5,0.00,WNW,303,6.7,6.7,44,0.00,,,0.00,VWS V13.01,2013-03-10 18:31:00,
2013-03-10 13:36:00,35.4,15.7,0.00,NNE,30,4.9,7.6,44,0.00,,,0.00,VWS V13.01,2013-03-10 18:36:00,
2013-03-10 13:41:00,35.4,15.7,0.00,North,2,9.2,9.2,44,0.00,,,0.00,VWS V13.01,2013-03-10 18:41:00,
2013-03-10 13:46:00,35.1,15.4,0.00,NNW,327,6.3,13.2,44,0.00,,,0.00,VWS V13.01,2013-03-10 18:46:00,
2013-03-10 13:51:00,35.1,15.4,0.00,NE,34,3.6,5.8,44,0.00,,,0.00,VWS V13.01,2013-03-10 18:51:00,
2013-03-10 13:56:00,35.1,15.4,0.00,North,4,8.1,8.1,44,0.00,,,0.00,VWS V13.01,2013-03-10 18:56:00,
2013-03-10 14:01:00,35.2,16.0,0.00,NE,36,3.6,4.0,45,0.00,,,0.00,VWS V13.01,2013-03-10 19:01:00,
2013-03-10 14:06:00,35.4,15.7,0.00,North,10,5.4,5.4,44,0.00,,,0.00,VWS V13.01,2013-03-10 19:06:00,
2013-03-10 14:11:00,35.4,15.7,0.00,NE,37,3.1,5.4,44,0.00,,,0.00,VWS V13.01,2013-03-10 19:11:00,
2013-03-10 14:16:00,35.2,15.0,0.00,NNE,19,8.1,11.0,43,0.00,,,0.00,VWS V13.01,2013-03-10 19:16:00,
2013-03-10 14:21:00,35.4,15.2,0.00,North,353,5.4,8.3,43,0.00,,,0.00,VWS V13.01,2013-03-10 19:21:00,
2013-03-10 14:26:00,35.2,15.0,0.00,North,11,7.6,8.7,43,0.00,,,0.00,VWS V13.01,2013-03-10 19:26:00,
2013-03-10 14:31:00,35.2,15.0,0.00,WNW,303,5.4,10.1,43,0.00,,,0.00,VWS V13.01,2013-03-10 19:31:00,
2013-03-10 14:36:00,35.1,14.8,0.00,North,10,4.0,8.7,43,0.00,,,0.00,VWS V13.01,2013-03-10 19:36:00,
2013-03-10 14:41:00,34.9,15.2,0.00,NNW,341,4.0,4.0,44,0.00,,,0.00,VWS V13.01,2013-03-10 19:41:00,
2013-03-10 14:46:00,34.9,14.7,0.00,SSW,207,3.1,11.4,43,0.00,,,0.00,VWS V13.01,2013-03-10 19:46:00,
2013-03-10 14:51:00,34.7,15.0,0.00,NNW,344,5.8,6.3,44,0.00,,,0.00,VWS V13.01,2013-03-10 19:51:00,
2013-03-10 14:56:00,34.5,14.9,0.00,NE,47,8.1,8.7,44,0.00,,,0.00,VWS V13.01,2013-03-10 19:56:00,
2013-03-10 15:01:00,34.5,15.4,0.00,NNE,24,4.0,5.4,45,0.00,,,0.00,VWS V13.01,2013-03-10 20:01:00,
2013-03-10 15:06:00,34.5,14.9,0.00,NE,45,7.6,7.6,44,0.00,,,0.00,VWS V13.01,2013-03-10 20:06:00,
2013-03-10 15:12:00,34.5,14.9,0.00,West,262,4.0,5.8,44,0.00,,,0.00,VWS V13.01,2013-03-10 20:12:00,
2013-03-10 15:17:00,34.5,14.9,0.00,NNE,15,5.4,8.7,44,0.00,,,0.00,VWS V13.01,2013-03-10 20:17:00,
2013-03-10 15:22:00,34.3,14.7,0.00,WNW,301,5.8,6.3,44,0.00,,,0.00,VWS V13.01,2013-03-10 20:22:00,
2013-03-10 15:27:00,34.3,14.7,0.00,NNW,336,11.0,11.0,44,0.00,,,0.00,VWS V13.01,2013-03-10 20:27:00,
2013-03-10 15:32:00,34.5,14.9,0.00,NNE,16,5.8,8.3,44,0.00,,,0.00,VWS V13.01,2013-03-10 20:32:00,
2013-03-10 15:37:00,34.5,14.9,0.00,NNW,330,5.4,5.4,44,0.00,,,0.00,VWS V13.01,2013-03-10 20:37:00,
2013-03-10 15:42:00,34.5,14.9,0.00,North,10,8.1,10.1,44,0.00,,,0.00,VWS V13.01,2013-03-10 20:42:00,
2013-03-10 15:47:00,34.5,14.9,0.00,NNE,23,3.1,8.1,44,0.00,,,0.00,VWS V13.01,2013-03-10 20:47:00,
2013-03-10 15:52:00,34.5,14.9,0.00,ESE,113,5.8,7.6,44,0.00,,,0.00,VWS V13.01,2013-03-10 20:52:00,
2013-03-10 15:57:00,34.5,14.9,0.00,North,353,6.3,11.0,44,0.00,,,0.00,VWS V13.01,2013-03-10 20:57:00,
2013-03-10 16:02:00,34.5,14.9,0.00,ENE,68,8.1,8.1,44,0.00,,,0.00,VWS V13.01,2013-03-10 21:02:00,
2013-03-10 16:07:00,34.5,14.9,0.00,WNW,302,4.9,5.8,44,0.00,,,0.00,VWS V13.01,2013-03-10 21:07:00,
2013-03-10 16:12:00,34.5,15.4,0.00,NW,311,5.4,8.7,45,0.00,,,0.00,VWS V13.01,2013-03-10 21:12:00,
2013-03-10 16:17:00,34.5,15.4,0.00,NNW,345,3.6,3.6,45,0.00,,,0.00,VWS V13.01,2013-03-10 21:17:00,
2013-03-10 16:22:00,34.5,15.4,0.00,NNW,345,5.8,5.8,45,0.00,,,0.00,VWS V13.01,2013-03-10 21:22:00,
2013-03-10 16:27:00,34.5,15.4,0.00,NE,45,4.0,5.8,45,0.00,,,0.00,VWS V13.01,2013-03-10 21:27:00,
2013-03-10 16:32:00,34.3,15.7,0.00,North,0,3.6,7.6,46,0.00,,,0.00,VWS V13.01,2013-03-10 21:32:00,
2013-03-10 16:37:00,34.2,15.6,0.00,NE,40,3.1,8.1,46,0.00,,,0.00,VWS V13.01,2013-03-10 21:37:00,
2013-03-10 16:42:00,34.0,15.4,0.00,NNW,339,3.6,8.1,46,0.00,,,0.00,VWS V13.01,2013-03-10 21:42:00,
2013-03-10 16:47:00,33.8,15.7,0.00,East,82,5.8,7.6,47,0.00,,,0.00,VWS V13.01,2013-03-10 21:47:00,
2013-03-10 16:52:00,33.8,15.7,0.00,North,357,5.4,6.3,47,0.00,,,0.00,VWS V13.01,2013-03-10 21:52:00,
2013-03-10 16:57:00,33.8,16.2,0.00,NNW,330,6.3,8.7,48,0.00,,,0.00,VWS V13.01,2013-03-10 21:57:00,
2013-03-10 17:02:00,33.8,15.7,0.00,NW,325,4.9,7.6,47,0.00,,,0.00,VWS V13.01,2013-03-10 22:02:00,
2013-03-10 17:08:00,33.8,15.7,0.00,North,2,4.0,5.8,47,0.00,,,0.00,VWS V13.01,2013-03-10 22:08:00,
2013-03-10 17:13:00,33.8,15.7,0.00,North,353,8.1,8.1,47,0.00,,,0.00,VWS V13.01,2013-03-10 22:13:00,
2013-03-10 17:18:00,33.8,15.7,0.00,NE,56,5.4,7.6,47,0.00,,,0.00,VWS V13.01,2013-03-10 22:18:00,
2013-03-10 17:22:00,33.6,15.6,0.00,North,353,5.4,5.8,47,0.00,,,0.00,VWS V13.01,2013-03-10 22:22:00,
2013-03-10 17:27:00,33.6,15.6,0.00,NNW,340,5.4,8.3,47,0.00,,,0.00,VWS V13.01,2013-03-10 22:27:00,
2013-03-10 17:33:00,33.6,15.6,0.00,ENE,61,5.4,5.4,47,0.00,,,0.00,VWS V13.01,2013-03-10 22:33:00,
2013-03-10 17:38:00,33.6,15.6,0.00,North,2,4.0,6.3,47,0.00,,,0.00,VWS V13.01,2013-03-10 22:38:00,
2013-03-10 17:43:00,33.6,15.6,0.00,NE,36,11.0,13.6,47,0.00,,,0.00,VWS V13.01,2013-03-10 22:43:00,
2013-03-10 17:48:00,33.6,15.6,0.00,ESE,115,8.3,8.3,47,0.00,,,0.00,VWS V13.01,2013-03-10 22:48:00,
2013-03-10 17:53:00,33.4,14.9,0.00,NNW,338,5.4,5.4,46,0.00,,,0.00,VWS V13.01,2013-03-10 22:53:00,
2013-03-10 17:58:00,33.4,14.9,0.00,WNW,293,3.1,10.5,46,0.00,,,0.00,VWS V13.01,2013-03-10 22:58:00,
2013-03-10 18:03:00,33.3,14.7,0.00,NNE,31,4.9,6.3,46,0.00,,,0.00,VWS V13.01,2013-03-10 23:03:00,
2013-03-10 18:08:00,33.3,14.7,0.00,North,4,6.3,10.1,46,0.00,,,0.00,VWS V13.01,2013-03-10 23:08:00,
2013-03-10 18:13:00,33.3,14.7,0.00,NE,56,0.0,6.3,46,0.00,,,0.00,VWS V13.01,2013-03-10 23:13:00,
2013-03-10 18:18:00,33.1,14.6,0.00,NE,34,5.4,5.4,46,0.00,,,0.00,VWS V13.01,2013-03-10 23:18:00,
2013-03-10 18:23:00,33.1,15.1,0.00,NE,44,6.3,6.3,47,0.00,,,0.00,VWS V13.01,2013-03-10 23:23:00,
2013-03-10 18:28:00,33.1,15.1,0.00,North,353,4.9,4.9,47,0.00,,,0.00,VWS V13.01,2013-03-10 23:28:00,
2013-03-10 18:33:00,32.9,14.9,0.00,North,349,8.7,8.7,47,0.00,,,0.00,VWS V13.01,2013-03-10 23:33:00,
2013-03-10 18:38:00,32.9,14.9,0.00,East,85,5.4,5.8,47,0.00,,,0.00,VWS V13.01,2013-03-10 23:38:00,
2013-03-10 18:43:00,32.9,14.9,0.00,North,7,5.4,5.4,47,0.00,,,0.00,VWS V13.01,2013-03-10 23:43:00,
2013-03-10 18:48:00,32.7,14.7,0.00,NNW,338,11.4,11.4,47,0.00,,,0.00,VWS V13.01,2013-03-10 23:48:00,
2013-03-10 18:53:00,32.7,14.7,0.00,NE,46,3.1,5.4,47,0.00,,,0.00,VWS V13.01,2013-03-10 23:53:00,
2013-03-10 18:58:00,32.7,14.7,0.00,North,349,4.0,5.8,47,0.00,,,0.00,VWS V13.01,2013-03-10 23:58:00,
2013-03-10 19:03:00,32.7,15.2,0.00,NNW,343,8.1,8.1,48,0.00,,,0.00,VWS V13.01,2013-03-11 00:03:00,
2013-03-10 19:08:00,32.7,15.2,0.00,NE,54,3.1,7.2,48,0.00,,,0.00,VWS V13.01,2013-03-11 00:08:00,
2013-03-10 19:13:00,32.5,15.0,0.00,NNW,341,11.0,12.3,48,0.00,,,0.00,VWS V13.01,2013-03-11 00:13:00,
2013-03-10 19:18:00,32.5,15.5,0.00,NNE,27,10.5,10.5,49,0.00,,,0.00,VWS V13.01,2013-03-11 00:18:00,
2013-03-10 19:23:00,32.5,15.5,0.00,NNE,17,5.4,5.4,49,0.00,,,0.00,VWS V13.01,2013-03-11 00:23:00,
2013-03-10 19:28:00,32.5,15.5,0.00,NE,43,3.6,5.4,49,0.00,,,0.00,VWS V13.01,2013-03-11 00:28:00,
2013-03-10 19:33:00,32.4,15.4,0.00,NE,50,7.6,11.0,49,0.00,,,0.00,VWS V13.01,2013-03-11 00:33:00,
2013-03-10 19:38:00,32.4,15.8,0.00,NNW,339,8.3,10.5,50,0.00,,,0.00,VWS V13.01,2013-03-11 00:38:00,
2013-03-10 19:43:00,32.2,15.6,0.00,NNW,340,5.4,7.2,50,0.00,,,0.00,VWS V13.01,2013-03-11 00:43:00,
2013-03-10 19:48:00,32.2,15.6,0.00,North,5,11.0,11.0,50,0.00,,,0.00,VWS V13.01,2013-03-11 00:48:00,
2013-03-10 19:53:00,32.2,16.1,0.00,North,0,0.0,12.8,51,0.00,,,0.00,VWS V13.01,2013-03-11 00:53:00,
2013-03-10 19:58:00,32.2,16.1,0.00,NNE,30,7.2,7.2,51,0.00,,,0.00,VWS V13.01,2013-03-11 00:58:00,
2013-03-10 20:03:00,32.2,16.1,0.00,North,3,8.3,10.5,51,0.00,,,0.00,VWS V13.01,2013-03-11 01:03:00,
2013-03-10 20:08:00,32.0,15.9,0.00,NNE,23,2.2,5.8,51,0.00,,,0.00,VWS V13.01,2013-03-11 01:08:00,
2013-03-10 20:13:00,32.0,15.9,0.00,North,0,3.6,4.0,51,0.00,,,0.00,VWS V13.01,2013-03-11 01:13:00,
2013-03-10 20:18:00,32.0,15.9,0.00,NE,56,4.0,4.0,51,0.00,,,0.00,VWS V13.01,2013-03-11 01:18:00,
2013-03-10 20:23:00,32.0,15.9,0.00,NW,320,5.4,5.4,51,0.00,,,0.00,VWS V13.01,2013-03-11 01:23:00,
2013-03-10 20:28:00,32.0,15.9,0.00,NE,50,5.8,5.8,51,0.00,,,0.00,VWS V13.01,2013-03-11 01:28:00,
2013-03-10 20:33:00,32.0,15.9,0.00,NNE,29,3.1,4.0,51,0.00,,,0.00,VWS V13.01,2013-03-11 01:33:00,
2013-03-10 20:39:00,32.0,15.9,0.00,ENE,59,5.8,6.7,51,0.00,,,0.00,VWS V13.01,2013-03-11 01:39:00,
2013-03-10 20:44:00,32.0,15.9,0.00,North,353,5.8,6.3,51,0.00,,,0.00,VWS V13.01,2013-03-11 01:44:00,
2013-03-10 20:49:00,31.8,15.8,0.00,North,8,4.0,5.8,51,0.00,,,0.00,VWS V13.01,2013-03-11 01:49:00,
2013-03-10 20:54:00,31.8,15.8,0.00,NE,55,3.6,5.8,51,0.00,,,0.00,VWS V13.01,2013-03-11 01:54:00,
2013-03-10 20:59:00,31.8,15.8,0.00,ENE,66,4.9,8.3,51,0.00,,,0.00,VWS V13.01,2013-03-11 01:59:00,
2013-03-10 21:04:00,31.6,15.6,0.00,NNW,335,5.8,7.6,51,0.00,,,0.00,VWS V13.01,2013-03-11 02:04:00,
2013-03-10 21:09:00,31.5,15.9,0.00,NE,43,8.1,8.1,52,0.00,,,0.00,VWS V13.01,2013-03-11 02:09:00,
2013-03-10 21:14:00,31.1,16.4,0.00,NE,56,4.0,4.9,54,0.00,,,0.00,VWS V13.01,2013-03-11 02:14:00,
2013-03-10 21:19:00,31.1,16.8,0.00,NNE,17,3.1,6.3,55,0.00,,,0.00,VWS V13.01,2013-03-11 02:19:00,
2013-03-10 21:24:00,30.7,17.3,0.00,North,9,6.3,9.6,57,0.00,,,0.00,VWS V13.01,2013-03-11 02:24:00,
2013-03-10 21:29:00,30.6,17.6,0.00,NE,34,5.8,5.8,58,0.00,,,0.00,VWS V13.01,2013-03-11 02:29:00,
2013-03-10 21:34:00,30.4,17.8,0.00,NNW,337,3.1,6.3,59,0.00,,,0.00,VWS V13.01,2013-03-11 02:34:00,
2013-03-10 21:39:00,30.4,18.2,0.00,NE,52,4.0,5.8,60,0.00,,,0.00,VWS V13.01,2013-03-11 02:39:00,
2013-03-10 21:44:00,30.2,19.1,0.00,NNE,15,4.9,5.8,63,0.00,,,0.00,VWS V13.01,2013-03-11 02:44:00,
2013-03-10 21:49:00,30.2,20.2,0.00,North,11,2.7,5.4,66,0.00,,,0.00,VWS V13.01,2013-03-11 02:49:00,
2013-03-10 21:54:00,30.0,20.4,0.00,NNW,336,3.6,7.6,67,0.00,,,0.00,VWS V13.01,2013-03-11 02:54:00,
2013-03-10 21:59:00,29.8,20.6,0.00,North,10,5.8,5.8,68,0.00,,,0.00,VWS V13.01,2013-03-11 02:59:00,
2013-03-10 22:04:00,29.7,21.1,0.00,NNW,327,8.7,9.6,70,0.00,,,0.00,VWS V13.01,2013-03-11 03:04:00,
2013-03-10 22:09:00,29.5,21.6,0.00,NW,326,8.7,8.7,72,0.00,,,0.00,VWS V13.01,2013-03-11 03:09:00,
2013-03-10 22:14:00,29.5,21.9,0.00,ENE,66,5.4,10.5,73,0.00,,,0.00,VWS V13.01,2013-03-11 03:14:00,
2013-03-10 22:19:00,29.5,22.5,0.00,NE,55,3.1,5.4,75,0.00,,,0.00,VWS V13.01,2013-03-11 03:19:00,
2013-03-10 22:24:00,29.5,22.9,0.00,NNW,341,4.0,4.0,76,0.00,,,0.00,VWS V13.01,2013-03-11 03:24:00,
2013-03-10 22:29:00,29.3,22.7,0.00,NNE,12,7.6,10.5,76,0.00,,,0.00,VWS V13.01,2013-03-11 03:29:00,
2013-03-10 22:34:00,29.3,23.0,0.00,NNE,20,2.7,2.7,77,0.00,,,0.00,VWS V13.01,2013-03-11 03:34:00,
2013-03-10 22:39:00,29.1,22.8,0.00,NW,315,6.7,6.7,77,0.00,,,0.00,VWS V13.01,2013-03-11 03:39:00,
2013-03-10 22:44:00,29.1,23.1,0.00,NNW,342,3.6,5.4,78,0.00,,,0.00,VWS V13.01,2013-03-11 03:44:00,
2013-03-10 22:49:00,29.1,23.1,0.00,NNE,32,4.0,4.0,78,0.00,,,0.00,VWS V13.01,2013-03-11 03:49:00,
2013-03-10 22:54:00,29.1,23.1,0.00,NNW,339,5.8,5.8,78,0.00,,,0.00,VWS V13.01,2013-03-11 03:54:00,
2013-03-10 22:59:00,29.1,23.1,0.00,NE,52,3.6,4.0,78,0.00,,,0.00,VWS V13.01,2013-03-11 03:59:00,
2013-03-10 23:00:00,29.1,23.1,0.00,NNW,327,2.7,5.4,78,0.00,,,0.00,VWS V13.01,2013-03-11 04:00:00,
2013-03-10 23:05:00,28.9,23.0,0.00,NNW,341,8.7,9.6,78,0.00,,,0.00,VWS V13.01,2013-03-11 04:05:00,
2013-03-10 23:10:00,28.9,22.6,0.00,North,357,8.3,8.3,77,0.00,,,0.00,VWS V13.01,2013-03-11 04:10:00,
2013-03-10 23:15:00,28.9,22.6,0.00,NNE,22,10.1,10.1,77,0.00,,,0.00,VWS V13.01,2013-03-11 04:15:00,
2013-03-10 23:20:00,28.9,22.6,0.00,NE,50,4.0,4.0,77,0.00,,,0.00,VWS V13.01,2013-03-11 04:20:00,
2013-03-10 23:25:00,28.9,22.3,0.00,NNE,15,3.1,3.6,76,0.00,,,0.00,VWS V13.01,2013-03-11 04:25:00,
2013-03-10 23:30:00,28.8,22.2,0.00,NW,326,4.9,4.9,76,0.00,,,0.00,VWS V13.01,2013-03-11 04:30:00,
2013-03-10 23:35:00,28.8,22.2,0.00,NE,55,4.0,4.0,76,0.00,,,0.00,VWS V13.01,2013-03-11 04:35:00,
2013-03-10 23:40:00,28.8,22.2,0.00,North,357,8.1,8.1,76,0.00,,,0.00,VWS V13.01,2013-03-11 04:40:00,
2013-03-10 23:45:00,28.8,22.2,0.00,NNW,327,8.3,8.3,76,0.00,,,0.00,VWS V13.01,2013-03-11 04:45:00,
2013-03-10 23:50:00,28.8,22.5,0.00,NW,322,5.8,5.8,77,0.00,,,0.00,VWS V13.01,2013-03-11 04:50:00,
2013-03-10 23:55:00,28.6,22.3,0.00,NNW,336,6.3,6.3,77,0.00,,,0.00,VWS V13.01,2013-03-11 04:55:00,